Temp
48 41 37 40 43 43 43 41 38 39 44 43 42 44 48 49 46 48 50 51 52 54 56 58 58 57 58 59 59 60 60 61 61 59 59 58 61 61 62 62 62 62 62 62
42 37 44 47 47 45 42 39 37 40 44 43 38 42 46 48 49 51 52 52 53 51 53 56 55 54 56 56 56 57 59 60 61 61 60 60 60 60 60 61 60 61 61 61
38 43 48 46 44 43 39 39 38 40 41 40 37 39 42 45 45 48 50 50 51 53 53 54 56 54 53 53 51 53 54 56 57 60 59 58 59 58 58 58 59 60 61 61
42 47 45 43 42 44 38 45 44 42 38 33 37 29 38 39 43 46 49 48 49 48 48 51 51 49 48 49 49 51 53 54 56 56 57 57 59 58 57 59 59 60 61 60
37 40 42 40 43 47 42 46 44 40 35 31 30 29 35 38 42 49 44 45 47 47 47 47 48 48 45 47 47 48 50 51 52 52 53 54 55 56 56 57 57 58 58 59
40 46 45 45 46 48 47 43 41 38 34 23 31 32 30 39 44 42 43 43 44 44 45 46 46 47 47 46 47 48 49 48 49 50 50 51 51 52 53 54 55 55 54 53
37 38 44 46 42 45 43 39 27 26 25 24 30 29 34 42 45 45 47 44 44 44 45 45 46 47 47 46 46 48 47 47 47 48 48 48 49 51 52 53 53 53 51 51
31 28 40 45 42 40 39 39 29 21 19 25 31 29 36 42 45 46 49 49 46 45 46 46 46 46 46 46 46 46 46 47 46 47 47 47 47 48 49 50 51 52 50 49
31 33 41 43 45 45 38 33 40 30 22 22 27 32 41 41 42 42 45 47 47 46 46 45 45 46 46 46 46 46 46 46 46 46 45 46 46 47 46 46 47 46 47 49
36 31 38 41 44 42 39 43 33 29 17 16 25 27 32 39 41 41 43 45 46 47 46 46 46 46 46 45 45 44 45 45 44 44 44 44 44 44 45 45 45 45 45 45
39 34 34 40 36 35 36 35 37 37 31 23 20 28 37 39 42 42 44 45 45 46 47 47 46 46 45 44 43 43 43 44 44 44 43 43 42 43 43 43 43 43 43 43
40 34 29 33 38 41 39 36 37 29 25 26 28 28 41 41 41 42 44 45 44 45 47 46 47 46 45 44 43 43 43 42 43 43 42 42 42 41 41 41 41 42 41 42
40 33 22 25 33 37 34 36 38 36 33 26 24 29 42 41 40 41 43 44 45 44 45 47 46 46 45 45 45 44 43 43 42 42 42 41 41 41 40 40 40 41 41 40
41 33 29 24 29 32 32 35 38 37 27 31 30 32 37 41 41 41 43 44 45 46 47 47 47 46 45 45 45 45 45 43 42 41 40 40 40 40 40 40 40 40 40 39
37 28 28 31 31 32 31 31 36 35 37 31 37 34 39 40 41 42 41 43 44 46 47 48 47 46 46 46 45 45 44 43 42 41 40 40 40 40 39 39 38 38 38 38
35 18 25 21 32 31 30 33 33 37 38 37 36 33 41 42 42 41 44 43 44 46 47 47 48 47 46 46 46 46 45 44 42 41 40 40 39 38 38 38 37 37 37 36
30 21 25 15 27 26 22 30 33 35 40 39 33 41 42 43 43 43 43 44 45 45 45 46 46 47 46 46 46 44 44 42 41 40 40 39 38 37 37 37 36 35 35 35
30 25 26 17 15 9 29 34 36 34 38 40 40 40 41 45 48 45 45 45 46 46 46 46 45 45 44 43 42 41 40 40 39 38 38 37 36 36 35 35 34 34 33 33
35 28 18 15 15 23 31 33 32 32 34 41 40 43 44 41 39 42 46 46 48 48 48 46 44 43 40 40 38 38 37 36 36 36 35 35 35 34 34 33 33 32 32 31
32 34 28 17 16 14 29 34 35 39 28 41 41 42 42 38 33 42 49 45 45 44 43 42 40 38 38 35 35 36 35 35 34 33 33 33 33 33 33 32 31 30 31 31
25 27 24 24 21 21 34 35 37 25 31 40 41 42 38 37 45 44 43 42 42 42 41 38 37 37 36 34 35 35 34 33 32 32 31 30 31 31 31 30 28 29 29 29
20 20 19 23 21 18 34 32 32 41 40 40 39 38 37 39 40 40 40 39 38 37 36 36 36 35 32 32 34 33 33 30 29 28 27 24 24 28 28 27 25 26 28 27
20 28 22 24 25 35 34 35 39 39 39 38 39 41 39 37 37 37 37 36 37 37 36 35 35 34 31 30 30 29 29 27 24 22 20 20 22 24 24 25 24 24 25 27
27 31 27 29 35 34 35 37 37 39 39 41 39 38 38 37 36 37 37 35 35 35 35 33 32 30 32 25 24 22 24 21 20 19 18 18 20 19 20 22 23 23 23 23
29 31 26 27 34 33 37 36 38 39 39 38 39 37 39 39 35 34 35 34 33 33 30 26 25 24 22 18 16 13 16 16 18 17 16 17 18 17 17 19 19 20 20 23
30 30 29 28 34 37 37 40 39 37 38 38 37 36 38 35 36 34 34 33 33 26 22 22 20 19 17 14 13 9 6 13 15 15 15 15 16 15 17 20 19 30 30 30
MSLP
1016.06 1016.52 1016.20 1016.45 1016.19 1015.92 1015.92 1016.24 1016.36 1016.44 1016.41 1016.36 1016.48 1016.06 1015.84 1015.74 1015.95 1016.07 1016.13 1016.08 1015.99 1015.87 1015.34 1015.23 1015.16 1015.16 1015.32 1015.60 1015.85 1016.02 1016.21 1016.26 1016.79 1017.33 1017.72 1017.97 1017.88 1017.85 1017.88 1017.78 1017.88 1018.13 1018.34 1018.60
1016.63 1016.40 1016.34 1016.25 1016.23 1016.15 1016.36 1016.51 1016.79 1016.99 1016.90 1016.92 1017.23 1016.80 1016.17 1015.96 1015.65 1015.48 1015.68 1015.77 1015.64 1015.66 1015.48 1015.35 1015.29 1015.39 1015.60 1015.80 1015.94 1016.04 1016.16 1016.27 1016.34 1016.49 1016.68 1016.90 1017.10 1017.17 1017.17 1017.27 1017.56 1017.68 1017.83 1018.01
1016.72 1016.52 1016.15 1016.19 1016.24 1016.36 1016.52 1016.61 1017.02 1017.36 1017.56 1017.67 1017.65 1017.11 1016.26 1015.72 1015.38 1015.15 1014.99 1015.08 1015.29 1015.40 1015.49 1015.54 1015.52 1015.58 1015.87 1016.16 1016.35 1016.40 1016.34 1016.31 1016.30 1016.41 1016.58 1016.81 1016.97 1017.06 1017.13 1017.15 1017.20 1017.03 1017.33 1017.48
1016.95 1016.41 1016.38 1016.38 1016.21 1016.31 1016.60 1016.60 1017.05 1017.75 1018.31 1018.86 1018.66 1017.96 1016.62 1016.03 1015.70 1015.17 1014.67 1015.01 1014.98 1015.25 1015.40 1015.48 1015.64 1015.89 1016.13 1016.47 1016.69 1016.69 1016.63 1016.54 1016.40 1016.35 1016.48 1016.64 1016.77 1016.93 1016.74 1016.73 1016.78 1016.80 1016.87 1017.03
1016.99 1016.68 1016.70 1016.62 1016.02 1016.15 1016.60 1016.73 1017.61 1018.51 1019.31 1019.68 1019.68 1019.52 1016.73 1016.21 1015.53 1014.64 1014.56 1014.98 1015.00 1015.07 1015.34 1015.66 1016.00 1016.31 1016.62 1016.71 1016.89 1016.92 1016.79 1016.79 1016.78 1016.66 1016.66 1016.76 1016.77 1016.72 1016.58 1016.64 1016.71 1016.72 1016.77 1016.78
1017.15 1016.86 1016.66 1016.30 1016.13 1016.10 1016.86 1017.45 1018.46 1019.56 1020.31 1020.68 1020.07 1019.87 1017.66 1016.27 1015.12 1014.58 1014.56 1014.91 1015.31 1015.54 1015.71 1016.02 1016.21 1016.50 1016.77 1017.01 1017.01 1017.02 1017.02 1017.13 1017.00 1016.94 1016.81 1016.88 1016.88 1016.79 1016.75 1016.66 1016.74 1016.77 1016.97 1017.16
1017.50 1017.23 1016.86 1016.36 1016.52 1016.84 1017.07 1017.89 1019.74 1020.81 1021.47 1021.00 1020.50 1020.37 1017.24 1015.58 1015.13 1014.83 1014.76 1015.04 1015.51 1015.88 1016.10 1016.28 1016.52 1016.73 1016.93 1017.14 1017.36 1017.32 1017.28 1017.34 1017.34 1017.28 1017.06 1017.04 1017.02 1016.85 1016.78 1016.69 1016.67 1016.92 1017.07 1017.25
1017.95 1017.94 1017.18 1016.79 1016.82 1016.85 1017.37 1017.72 1018.99 1020.47 1021.79 1021.65 1021.14 1019.21 1016.37 1015.12 1014.75 1014.85 1014.72 1014.88 1015.46 1015.80 1016.16 1016.30 1016.58 1016.87 1017.15 1017.26 1017.40 1017.57 1017.58 1017.65 1017.63 1017.55 1017.45 1017.36 1017.13 1017.06 1017.01 1016.87 1016.83 1016.86 1017.16 1017.47
1018.16 1017.87 1017.47 1017.29 1017.05 1017.06 1017.68 1018.04 1018.36 1019.73 1022.12 1022.04 1020.41 1018.56 1016.08 1015.07 1014.96 1014.88 1014.92 1015.16 1015.46 1015.69 1016.09 1016.21 1016.54 1016.93 1017.21 1017.42 1017.47 1017.56 1017.63 1017.68 1017.76 1017.73 1017.70 1017.60 1017.47 1017.37 1017.38 1017.36 1017.40 1017.54 1017.69 1017.87
1018.79 1018.64 1018.11 1017.77 1017.52 1017.63 1017.60 1017.94 1018.73 1019.68 1021.35 1021.76 1020.07 1018.82 1016.80 1015.52 1014.99 1015.08 1015.39 1015.51 1015.54 1015.63 1016.00 1016.30 1016.65 1016.98 1017.14 1017.29 1017.58 1017.81 1017.74 1017.64 1017.78 1017.81 1017.87 1017.87 1017.92 1017.87 1017.93 1017.94 1018.06 1018.15 1018.32 1018.50
1019.15 1019.43 1019.08 1018.30 1018.15 1017.95 1018.08 1018.05 1018.40 1019.08 1020.35 1020.36 1019.77 1017.78 1015.89 1015.44 1015.07 1015.17 1015.37 1015.52 1015.68 1015.78 1016.11 1016.33 1016.58 1016.84 1017.07 1017.38 1017.63 1017.69 1017.72 1017.79 1017.84 1017.80 1017.85 1018.00 1018.11 1018.08 1018.11 1018.32 1018.43 1018.51 1018.66 1018.88
1019.31 1019.56 1019.33 1018.97 1018.70 1018.47 1018.35 1018.24 1018.37 1019.12 1020.07 1020.07 1019.29 1017.02 1015.48 1015.36 1015.17 1015.17 1015.31 1015.60 1015.83 1016.00 1016.19 1016.40 1016.55 1016.83 1017.16 1017.40 1017.51 1017.59 1017.66 1017.76 1017.89 1017.94 1018.01 1018.12 1018.22 1018.31 1018.42 1018.55 1018.64 1018.74 1018.91 1019.11
1019.52 1019.76 1019.90 1019.90 1019.79 1019.23 1018.87 1018.50 1018.43 1018.75 1019.07 1019.04 1018.71 1016.47 1015.49 1015.28 1015.12 1015.18 1015.50 1015.83 1015.95 1016.04 1016.18 1016.32 1016.57 1016.79 1016.97 1017.08 1017.16 1017.18 1017.35 1017.50 1017.65 1017.84 1018.03 1018.11 1018.21 1018.44 1018.72 1018.78 1018.83 1018.95 1019.15 1019.35
1020.04 1020.18 1020.43 1020.47 1020.06 1019.99 1019.26 1018.51 1018.17 1018.53 1018.90 1017.91 1017.48 1016.16 1015.64 1015.28 1015.31 1015.51 1015.58 1015.66 1015.81 1015.94 1016.02 1016.06 1016.23 1016.49 1016.58 1016.70 1016.81 1016.87 1016.98 1017.17 1017.37 1017.62 1017.96 1018.11 1018.25 1018.40 1018.72 1018.95 1019.05 1019.18 1019.40 1019.62
1020.67 1021.13 1021.19 1021.09 1020.79 1020.41 1020.02 1019.40 1018.79 1018.20 1017.29 1017.65 1015.93 1016.13 1015.78 1015.49 1015.62 1015.56 1015.76 1015.87 1015.88 1015.94 1015.95 1015.88 1016.05 1016.23 1016.29 1016.39 1016.54 1016.59 1016.69 1016.92 1017.04 1017.40 1017.75 1017.92 1018.11 1018.29 1018.55 1018.96 1019.10 1019.24 1019.43 1019.67
1021.23 1021.78 1022.06 1021.67 1020.85 1020.38 1019.77 1018.81 1018.20 1017.86 1016.67 1016.69 1015.74 1015.51 1015.16 1015.17 1015.13 1015.48 1015.68 1016.01 1016.06 1015.60 1015.52 1015.68 1015.84 1015.82 1015.94 1016.12 1016.36 1016.41 1016.54 1016.76 1016.97 1017.33 1017.53 1017.72 1017.94 1018.24 1018.67 1019.00 1019.22 1019.40 1019.61 1019.82
1022.00 1022.57 1023.17 1023.00 1021.80 1021.02 1020.16 1017.73 1017.36 1016.70 1016.00 1015.68 1015.54 1013.84 1014.92 1014.95 1014.90 1014.76 1015.17 1015.25 1015.22 1015.16 1015.44 1015.58 1015.59 1015.62 1015.73 1016.02 1016.12 1016.41 1016.76 1017.01 1017.29 1017.48 1017.59 1017.75 1018.01 1018.46 1018.74 1018.96 1019.28 1019.60 1019.87 1020.07
1022.00 1022.59 1023.08 1023.02 1022.71 1021.48 1018.48 1017.20 1016.56 1016.19 1015.42 1015.40 1014.92 1014.18 1014.23 1014.04 1013.99 1014.09 1014.21 1014.44 1014.46 1014.58 1014.70 1014.93 1015.09 1015.36 1015.69 1015.95 1016.22 1016.66 1017.04 1017.25 1017.38 1017.49 1017.65 1017.82 1018.10 1018.46 1018.77 1019.07 1019.36 1019.68 1019.97 1020.26
1021.80 1022.36 1022.80 1022.80 1022.52 1020.57 1018.37 1016.68 1016.29 1015.74 1014.55 1014.27 1014.06 1013.59 1013.74 1013.97 1014.11 1013.86 1013.37 1013.26 1013.42 1013.51 1013.68 1014.07 1014.66 1015.23 1015.73 1016.22 1016.76 1017.14 1017.33 1017.52 1017.65 1017.76 1017.80 1017.86 1017.99 1018.28 1018.66 1019.08 1019.50 1019.90 1020.23 1020.56
1021.44 1021.33 1022.10 1022.28 1021.66 1019.93 1017.37 1016.03 1015.44 1014.99 1014.12 1012.52 1013.37 1013.01 1013.10 1013.77 1014.16 1012.39 1012.07 1012.52 1012.75 1013.02 1013.53 1014.11 1014.81 1015.49 1016.12 1016.79 1017.10 1017.41 1017.75 1017.80 1017.98 1018.05 1018.05 1018.01 1018.05 1018.25 1018.56 1018.96 1019.44 1019.82 1020.18 1020.66
1021.83 1021.51 1021.13 1021.04 1020.55 1018.76 1016.22 1015.85 1015.71 1015.36 1013.67 1012.45 1012.36 1012.37 1013.03 1013.48 1012.26 1011.89 1011.99 1012.32 1012.48 1012.79 1013.37 1014.05 1014.88 1015.66 1016.30 1016.87 1017.17 1017.56 1017.81 1017.94 1018.11 1018.22 1018.28 1018.30 1018.29 1018.47 1018.69 1019.08 1019.48 1019.82 1020.27 1020.69
1020.96 1020.79 1020.28 1019.99 1019.54 1018.13 1015.45 1015.89 1015.35 1013.63 1012.76 1012.56 1012.65 1012.55 1012.79 1012.44 1012.37 1012.44 1012.48 1012.67 1012.95 1013.52 1014.09 1014.77 1015.50 1016.21 1016.70 1016.97 1017.23 1017.65 1017.87 1018.05 1018.23 1018.39 1018.60 1018.89 1018.93 1018.97 1019.19 1019.43 1019.79 1020.04 1020.48 1021.03
1019.83 1018.38 1018.38 1018.17 1016.80 1015.20 1014.91 1014.40 1013.71 1013.51 1013.17 1013.01 1012.85 1012.64 1012.27 1012.38 1012.36 1012.49 1012.81 1013.14 1013.61 1014.00 1014.58 1015.07 1015.53 1016.28 1016.72 1017.11 1017.42 1017.87 1018.03 1018.27 1018.69 1019.04 1019.26 1019.59 1019.60 1019.69 1019.74 1019.86 1020.09 1020.32 1020.57 1021.07
1018.20 1017.48 1017.28 1017.01 1014.78 1014.73 1014.50 1014.20 1013.98 1013.47 1013.27 1012.97 1012.70 1012.53 1012.86 1012.37 1012.37 1012.79 1013.20 1013.75 1014.26 1014.57 1015.00 1015.41 1015.93 1016.60 1017.01 1017.35 1017.72 1018.18 1018.39 1018.72 1019.18 1019.49 1019.79 1020.05 1020.20 1020.51 1020.55 1020.64 1020.77 1020.92 1021.01 1021.20
1016.86 1016.83 1016.27 1015.71 1014.31 1014.41 1013.80 1013.69 1013.27 1013.05 1012.67 1012.57 1012.74 1012.51 1012.99 1012.71 1012.88 1013.08 1013.66 1014.34 1014.84 1015.32 1015.45 1016.00 1016.39 1016.96 1017.48 1017.80 1018.26 1018.74 1018.85 1019.06 1019.48 1019.80 1020.11 1020.39 1020.57 1020.81 1020.99 1021.04 1021.21 1021.45 1021.52 1021.53
1015.84 1015.33 1015.40 1014.31 1013.75 1013.43 1012.90 1012.73 1012.33 1012.76 1012.62 1012.16 1012.91 1013.06 1013.46 1012.71 1013.05 1013.56 1014.17 1014.72 1015.34 1015.53 1015.79 1016.20 1016.64 1017.27 1017.64 1018.06 1018.67 1019.13 1019.16 1019.14 1019.57 1020.11 1020.46 1020.66 1020.95 1021.16 1021.30 1021.43 1021.56 1021.50 1021.61 1021.83
Wind_Speed
1 2 7 5 2 2 5 3 3 1 2 3 5 7 8 5 3 7 8 8 8 9 5 5 4 2 4 5 5 7 7 7 5 3 3 3 6 4 6 6 7 6 6 7
3 6 5 4 2 2 3 4 2 0 2 2 2 10 8 7 7 8 9 9 10 4 4 4 3 2 4 2 2 1 5 5 6 4 3 3 3 3 3 4 6 8 7 7
4 1 7 4 4 5 1 5 3 1 1 3 3 7 4 4 5 5 8 7 6 9 8 7 7 4 0 2 3 4 4 3 4 4 2 2 1 0 1 3 3 5 6 7
3 2 5 1 3 4 4 4 5 5 3 3 2 7 6 1 7 7 9 6 8 7 6 5 5 3 2 1 2 3 3 4 4 2 3 5 5 4 3 3 3 3 6 6
5 3 5 4 4 6 3 5 5 4 4 2 2 2 9 3 6 9 3 3 7 6 5 5 5 5 2 3 3 3 3 4 5 4 2 3 4 3 1 2 4 3 2 3
2 2 1 4 2 5 7 6 7 5 3 2 5 5 6 5 6 2 2 4 3 5 6 5 4 4 3 3 4 4 5 4 5 5 4 2 4 4 3 3 3 3 1 1
2 1 4 1 6 3 2 6 3 2 1 6 1 1 7 10 5 3 5 2 3 5 4 4 4 3 4 4 4 3 5 4 5 5 5 4 4 5 5 5 3 4 3 2
5 2 5 2 2 6 4 4 7 6 4 3 2 8 8 5 4 6 7 5 4 4 3 4 4 3 3 4 4 4 4 4 4 4 4 4 5 2 2 2 1 2 2 3
3 1 2 2 0 1 3 2 1 8 1 3 5 7 11 4 4 1 4 5 6 5 4 4 4 3 2 0 1 1 2 2 4 4 5 5 5 6 4 5 4 3 4 3
3 2 2 2 2 2 4 6 2 2 3 5 4 4 6 5 6 2 4 6 5 4 4 2 1 1 1 1 1 2 1 0 1 2 3 3 4 4 4 4 5 5 4 4
2 3 3 2 4 6 3 3 2 4 3 5 1 6 7 6 6 7 7 6 5 5 4 3 3 2 2 2 3 3 2 2 2 0 1 2 3 4 4 5 4 4 4 4
2 2 4 4 3 3 2 2 4 4 5 3 2 7 3 7 7 6 7 5 3 4 5 4 4 3 3 3 3 3 3 3 3 2 1 1 2 2 3 4 4 4 5 5
3 3 2 4 2 0 5 6 4 3 2 6 5 7 2 4 3 4 6 5 5 4 4 4 3 3 3 4 4 4 4 4 3 2 2 2 2 2 2 3 4 5 5 5
5 1 1 2 3 3 4 5 9 7 2 8 8 5 4 5 5 4 6 6 7 7 6 4 3 3 4 5 4 5 4 3 3 3 4 4 3 3 3 3 3 4 4 5
3 4 2 2 3 1 2 7 8 12 21 11 18 11 8 5 6 6 4 5 5 6 6 6 4 4 5 4 4 5 5 4 2 4 5 5 3 4 4 4 4 4 5 5
1 3 2 4 8 8 5 10 9 17 22 14 14 10 5 4 4 5 7 6 8 10 8 6 7 6 7 6 5 4 4 3 2 5 5 4 4 3 4 4 4 4 4 4
3 4 2 6 3 1 5 14 11 9 15 14 16 25 6 8 8 7 9 10 12 10 7 8 8 8 5 5 4 3 2 3 2 3 3 3 4 5 6 5 5 4 4 3
5 3 3 4 3 0 7 2 5 10 14 8 12 11 7 12 12 7 8 11 13 10 9 9 7 4 5 2 3 2 1 2 2 3 3 3 4 5 4 4 4 3 3 4
8 4 3 2 3 5 10 7 7 9 12 13 17 17 13 6 1 8 11 11 12 13 10 7 5 5 5 6 3 3 3 2 2 3 4 3 4 5 5 5 5 3 3 2
7 9 6 1 4 8 10 3 2 4 6 8 11 17 14 8 6 15 11 8 11 9 4 5 6 4 7 4 4 4 3 3 3 4 4 4 2 4 5 5 5 3 3 4
3 6 16 12 7 8 13 6 3 3 13 4 6 12 5 9 13 3 2 4 4 5 7 6 7 7 6 5 4 4 2 2 1 2 3 3 2 3 4 5 3 4 5 6
8 7 6 8 8 12 5 4 12 11 7 4 4 4 7 9 6 6 5 3 4 4 5 6 7 6 5 5 4 4 2 3 2 3 4 3 3 3 3 5 3 4 5 6
5 9 6 10 9 6 6 4 7 2 5 6 4 8 8 6 6 6 4 5 5 7 6 4 6 5 3 3 2 1 2 3 4 4 3 3 4 3 2 4 4 3 5 6
5 4 4 4 11 9 6 8 7 4 6 9 6 5 5 5 4 4 2 3 4 5 4 4 5 4 4 3 3 3 2 4 5 5 4 3 4 4 4 3 3 2 3 5
6 7 5 6 16 4 10 8 10 10 11 10 7 3 8 6 3 2 1 2 3 4 3 3 5 4 4 5 4 2 3 4 4 4 3 3 3 3 4 3 3 3 2 2
6 8 6 10 7 6 8 8 6 7 9 8 2 3 7 2 4 3 3 3 4 5 3 3 4 4 4 4 4 4 3 5 6 4 3 3 3 3 3 4 3 9 9 8
Wind_Direction
118 148 200 221 223 67 135 136 149 226 356 164 214 264 237 233 274 260 260 262 254 250 266 253 259 319 237 235 224 215 197 203 157 154 172 201 226 220 228 220 218 206 210 210
93 239 205 166 187 81 119 125 174 323 20 140 55 271 260 255 239 215 223 237 241 236 237 236 229 23 59 47 26 278 243 213 204 190 181 173 172 200 191 194 207 215 215 212
172 280 161 144 151 137 110 151 169 208 86 68 336 288 269 256 273 268 253 242 242 233 230 235 244 251 335 58 18 2 349 309 244 217 146 122 113 106 174 205 229 224 208 212
261 349 131 138 185 143 165 186 127 125 95 233 6 273 294 303 284 270 265 252 258 255 243 217 215 169 112 84 28 358 339 347 358 284 199 199 222 223 217 204 200 213 209 221
242 183 157 178 203 160 196 130 115 87 78 12 340 47 275 353 288 265 324 313 275 242 221 209 135 137 78 49 36 14 13 30 5 357 318 234 232 231 237 245 254 243 211 211
202 291 262 215 75 147 148 90 58 52 57 340 216 167 266 237 219 356 14 32 80 103 110 111 108 116 101 42 35 32 34 30 15 15 5 315 264 265 254 240 234 224 139 91
29 316 302 13 84 49 166 125 42 311 217 234 6 254 264 271 235 263 313 242 128 124 121 135 134 103 89 69 39 36 35 29 8 14 22 8 311 266 251 250 221 189 165 163
151 230 186 177 197 187 173 201 152 194 208 267 341 237 242 237 292 274 260 164 158 151 160 163 138 101 68 54 49 34 33 19 10 14 10 11 18 8 340 331 282 159 132 116
147 209 348 15 56 152 197 209 140 103 94 36 231 292 299 239 245 330 199 164 183 176 191 179 145 133 139 120 68 38 9 359 9 11 9 14 19 28 37 44 57 74 84 93
327 174 10 341 144 36 158 173 114 14 130 239 267 272 245 285 268 167 196 215 197 179 179 176 162 213 228 278 272 243 232 345 337 4 22 28 25 36 40 52 62 70 60 56
168 131 330 129 216 184 151 196 105 121 145 203 270 260 220 245 237 211 220 216 210 194 188 182 194 227 230 251 259 286 296 285 291 326 28 32 35 47 62 75 77 81 83 81
164 168 181 180 337 317 311 224 155 150 218 244 225 266 239 245 265 220 216 209 202 196 193 197 204 209 223 246 262 262 273 277 279 272 161 103 102 86 93 92 85 86 93 84
173 193 90 10 5 249 222 198 199 123 103 203 155 259 310 292 294 205 187 196 194 203 211 220 213 219 252 267 263 251 235 239 238 217 210 193 171 123 112 115 111 105 106 95
130 352 273 200 116 339 228 222 198 182 154 238 235 275 260 241 232 225 206 194 201 211 214 227 266 252 261 264 277 297 295 246 234 205 218 224 204 184 175 159 133 121 119 116
137 208 160 203 261 243 273 300 252 207 225 209 251 240 239 259 238 242 231 232 225 231 226 233 249 254 254 265 280 292 287 284 234 227 225 230 205 181 169 174 161 143 135 128
300 285 16 285 237 203 225 255 246 237 240 235 237 274 188 254 221 200 213 227 239 229 217 232 255 264 240 225 258 274 280 299 218 245 248 231 207 185 198 193 177 151 136 132
151 113 54 278 303 281 274 229 222 234 241 227 239 245 162 232 241 236 213 212 225 233 219 240 242 237 235 238 226 248 324 346 299 287 286 245 206 203 203 185 167 163 155 129
188 163 200 249 15 258 249 228 212 221 255 244 266 265 205 236 235 237 211 208 229 232 227 234 241 221 243 204 112 67 22 3 351 326 310 259 215 210 194 180 179 156 138 145
197 154 264 190 198 304 311 265 187 177 256 208 228 253 252 245 104 269 229 218 222 220 228 225 187 191 149 138 132 141 85 54 28 353 325 291 220 200 178 183 173 140 131 124
205 196 199 126 205 215 238 276 162 131 293 198 212 248 243 146 208 250 238 206 230 228 205 185 156 132 136 138 131 114 96 78 39 357 331 323 251 198 184 174 156 131 127 130
156 211 221 236 245 282 257 208 157 193 247 140 206 241 204 197 218 227 138 206 239 233 186 152 155 152 137 134 133 117 121 65 357 0 29 48 81 148 158 141 136 142 134 123
168 172 200 211 227 254 180 106 189 225 274 351 311 263 202 232 263 279 279 257 186 153 110 126 130 134 147 151 149 144 123 159 131 111 98 83 77 110 121 130 118 124 128 124
236 192 186 179 210 234 212 232 249 303 272 280 245 268 228 221 236 247 266 234 168 149 140 145 140 143 158 137 105 95 82 110 96 90 90 76 61 57 74 130 139 125 130 144
246 163 217 96 251 252 242 245 249 254 265 288 268 269 236 208 229 248 157 167 168 169 167 155 147 186 205 162 114 137 94 114 124 120 120 99 99 78 53 45 40 81 126 138
189 152 193 254 268 336 274 237 238 237 234 244 247 212 253 197 175 146 180 213 217 214 183 163 184 209 234 171 153 137 132 136 125 124 124 102 98 101 96 83 105 87 3 139
189 183 195 238 212 200 242 250 260 240 252 250 207 325 273 166 191 161 217 232 227 231 209 207 206 201 216 174 176 178 180 157 140 136 141 139 126 113 104 113 99 100 101 104